| time (UTC) | temp C | wind direction | speed KPH | gust KPH | rain 1hr cm | rain 24hr cm | rain mn cm | humidity % | barometer mb |
| 20260505112006 | 17 | 53 | 8.0 | 16.1 | 0.00 | 0.18 | 0.15 | 60 | 1011.5 |
| 20260505111005 | 17 | 48 | 11.3 | 24.1 | 0.00 | 0.18 | 0.15 | 61 | 1011.6 |
| 20260505101006 | 15 | 60 | 11.3 | 24.1 | 0.00 | 0.18 | 0.15 | 70 | 1012.1 |
| 20260505100505 | 15 | 52 | 11.3 | 22.5 | 0.00 | 0.18 | 0.15 | 73 | 1012.0 |
| 20260505100005 | 15 | 48 | 11.3 | 22.5 | 0.00 | 0.18 | 0.15 | 73 | 1012.1 |
| 20260505095506 | 15 | 46 | 9.7 | 27.4 | 0.00 | 0.18 | 0.15 | 71 | 1012.1 |
| 20260505094505 | 15 | 48 | 9.7 | 27.4 | 0.00 | 0.18 | 0.15 | 74 | 1012.2 |
| 20260505094005 | 15 | 37 | 9.7 | 27.4 | 0.00 | 0.18 | 0.15 | 77 | 1012.2 |
| 20260505093505 | 14 | 46 | 11.3 | 24.1 | 0.00 | 0.18 | 0.15 | 77 | 1012.3 |
| 20260505093006 | 13 | 50 | 12.9 | 24.1 | 0.00 | 0.18 | 0.15 | 77 | 1012.3 |
| 20260505092505 | 13 | 40 | 11.3 | 22.5 | 0.00 | 0.18 | 0.15 | 76 | 1012.3 |
| 20260505091506 | 13 | 13 | 9.7 | 17.7 | 0.00 | 0.18 | 0.15 | 79 | 1012.3 |
| 20260505091007 | 13 | 11 | 9.7 | 20.9 | 0.00 | 0.18 | 0.15 | 78 | 1012.3 |
| 20260505090506 | 13 | 11 | 9.7 | 20.9 | 0.00 | 0.18 | 0.15 | 78 | 1012.3 |
| 20260505090006 | 13 | 22 | 8.0 | 17.7 | 0.00 | 0.18 | 0.15 | 79 | 1012.3 |
| 20260505085006 | 13 | 35 | 9.7 | 24.1 | 0.00 | 0.18 | 0.15 | 79 | 1012.3 |
| 20260505084006 | 13 | 35 | 9.7 | 20.9 | 0.00 | 0.18 | 0.15 | 81 | 1012.3 |
| 20260505083505 | 13 | 27 | 9.7 | 20.9 | 0.00 | 0.18 | 0.15 | 80 | 1012.3 |
| 20260505083005 | 13 | 25 | 9.7 | 16.1 | 0.00 | 0.18 | 0.15 | 81 | 1012.3 |
| 20260505082506 | 13 | 29 | 9.7 | 17.7 | 0.00 | 0.18 | 0.15 | 82 | 1012.3 |
| 20260505082005 | 12 | 35 | 9.7 | 22.5 | 0.00 | 0.18 | 0.15 | 83 | 1012.4 |
| 20260505081506 | 12 | 36 | 6.4 | 22.5 | 0.00 | 0.18 | 0.15 | 85 | 1012.5 |
| 20260505081006 | 12 | 24 | 6.4 | 11.3 | 0.00 | 0.18 | 0.15 | 87 | 1012.5 |
| 20260505080505 | 12 | 22 | 8.0 | 17.7 | 0.00 | 0.18 | 0.15 | 87 | 1012.6 |
| 20260505080005 | 12 | 25 | 8.0 | 17.7 | 0.00 | 0.18 | 0.15 | 87 | 1012.6 |
| 20260505075006 | 11 | 24 | 8.0 | 17.7 | 0.00 | 0.18 | 0.15 | 88 | 1012.7 |
| 20260505074506 | 11 | 17 | 8.0 | 17.7 | 0.00 | 0.18 | 0.15 | 88 | 1012.6 |
| 20260505074005 | 11 | 12 | 8.0 | 16.1 | 0.00 | 0.18 | 0.15 | 88 | 1012.5 |
| 20260505073506 | 11 | 11 | 8.0 | 17.7 | 0.00 | 0.18 | 0.15 | 88 | 1012.5 |
| 20260505073006 | 11 | 19 | 8.0 | 17.7 | 0.00 | 0.18 | 0.15 | 88 | 1012.5 |
| 20260505072505 | 11 | 30 | 8.0 | 16.1 | 0.00 | 0.18 | 0.15 | 89 | 1012.5 |
| 20260505072005 | 11 | 26 | 8.0 | 16.1 | 0.00 | 0.18 | 0.15 | 90 | 1012.5 |
| 20260505071006 | 11 | 24 | 9.7 | 16.1 | 0.00 | 0.18 | 0.15 | 90 | 1012.6 |
| 20260505070006 | 11 | 11 | 6.4 | 12.9 | 0.00 | 0.18 | 0.15 | 93 | 1012.7 |
| 20260505065506 | 10 | 14 | 6.4 | 12.9 | 0.00 | 0.18 | 0.15 | 93 | 1012.6 |
| 20260505065006 | 10 | 22 | 8.0 | 14.5 | 0.00 | 0.18 | 0.15 | 94 | 1012.7 |
| 20260505064005 | 10 | 359 | 6.4 | 11.3 | 0.00 | 0.18 | 0.15 | 95 | 1012.7 |
| 20260505063506 | 10 | 359 | 3.2 | 11.3 | 0.00 | 0.18 | 0.15 | 95 | 1012.6 |
| 20260505063006 | 9 | 357 | 3.2 | 11.3 | 0.00 | 0.18 | 0.15 | 95 | 1012.6 |
| 20260505062506 | 9 | 2 | 3.2 | 9.7 | 0.00 | 0.18 | 0.15 | 95 | 1012.6 |
| 20260505061505 | 9 | 17 | 3.2 | 9.7 | 0.00 | 0.18 | 0.15 | 95 | 1012.5 |
| 20260505061005 | 9 | 31 | 3.2 | 9.7 | 0.00 | 0.18 | 0.15 | 95 | 1012.5 |
| 20260505060506 | 9 | 34 | 1.6 | 9.7 | 0.00 | 0.18 | 0.15 | 95 | 1012.5 |
| 20260505060006 | 9 | 45 | 3.2 | 8.0 | 0.00 | 0.18 | 0.15 | 95 | 1012.6 |
| 20260505055506 | 9 | 43 | 3.2 | 8.0 | 0.00 | 0.18 | 0.15 | 96 | 1012.6 |
| 20260505054505 | 8 | 34 | 1.6 | 8.0 | 0.00 | 0.18 | 0.15 | 96 | 1012.5 |
| 20260505054005 | 8 | 34 | 3.2 | 9.7 | 0.00 | 0.18 | 0.15 | 96 | 1012.5 |
| 20260505053505 | 8 | 19 | 3.2 | 9.7 | 0.00 | 0.18 | 0.15 | 96 | 1012.4 |
| 20260505052505 | 8 | 12 | 3.2 | 11.3 | 0.00 | 0.18 | 0.15 | 95 | 1012.3 |
| 20260505052005 | 8 | 13 | 6.4 | 9.7 | 0.00 | 0.18 | 0.15 | 95 | 1012.3 |
| 20260505051505 | 8 | 16 | 6.4 | 11.3 | 0.00 | 0.18 | 0.15 | 95 | 1012.4 |
| 20260505050505 | 8 | 11 | 6.4 | 12.9 | 0.00 | 0.18 | 0.15 | 95 | 1012.4 |
| 20260505041505 | 9 | 39 | 1.6 | 8.0 | 0.00 | 0.18 | 0.15 | 95 | 1012.3 |
| 20260505041006 | 9 | 36 | 1.6 | 8.0 | 0.00 | 0.18 | 0.15 | 95 | 1012.4 |
| 20260505040505 | 10 | 33 | 3.2 | 8.0 | 0.00 | 0.18 | 0.15 | 95 | 1012.4 |
| 20260505040006 | 10 | 30 | 3.2 | 8.0 | 0.00 | 0.18 | 0.15 | 95 | 1012.4 |
| 20260505035505 | 10 | 27 | 1.6 | 8.0 | 0.00 | 0.18 | 0.15 | 95 | 1012.5 |
| 20260505035006 | 10 | 21 | 1.6 | 4.8 | 0.00 | 0.18 | 0.15 | 95 | 1012.5 |
| 20260505034506 | 10 | 15 | 1.6 | 3.2 | 0.00 | 0.18 | 0.15 | 95 | 1012.5 |
| 20260505034006 | 10 | 0 | 0.0 | 3.2 | 0.00 | 0.18 | 0.15 | 95 | 1012.6 |
| 20260505033506 | 10 | 0 | 0.0 | 3.2 | 0.00 | 0.18 | 0.15 | 95 | 1012.7 |
| 20260505032505 | 10 | 15 | 1.6 | 3.2 | 0.00 | 0.18 | 0.15 | 95 | 1012.7 |
| 20260505032006 | 10 | 0 | 0.0 | 3.2 | 0.00 | 0.18 | 0.15 | 95 | 1012.7 |
| 20260505031506 | 10 | 0 | 0.0 | 3.2 | 0.00 | 0.18 | 0.15 | 95 | 1012.7 |
| 20260505030506 | 10 | 0 | 0.0 | 1.6 | 0.00 | 0.18 | 0.15 | 95 | 1012.6 |
| 20260505030005 | 10 | 0 | 0.0 | 1.6 | 0.00 | 0.18 | 0.15 | 95 | 1012.7 |
| 20260505025506 | 10 | 0 | 0.0 | 3.2 | 0.00 | 0.18 | 0.15 | 95 | 1012.7 |
| 20260505025006 | 10 | 0 | 0.0 | 3.2 | 0.00 | 0.18 | 0.15 | 95 | 1012.7 |
| 20260505024506 | 10 | 15 | 1.6 | 3.2 | 0.00 | 0.18 | 0.15 | 95 | 1012.7 |
| 20260505024006 | 10 | 16 | 1.6 | 3.2 | 0.00 | 0.18 | 0.15 | 95 | 1012.7 |
| 20260505023506 | 10 | 10 | 1.6 | 4.8 | 0.00 | 0.18 | 0.15 | 95 | 1012.6 |
| 20260505022505 | 11 | 0 | 0.0 | 3.2 | 0.00 | 0.18 | 0.15 | 95 | 1012.6 |
| 20260505021006 | 11 | 356 | 1.6 | 3.2 | 0.03 | 0.18 | 0.15 | 95 | 1012.7 |
| 20260505015506 | 11 | 0 | 0.0 | 1.6 | 0.05 | 0.18 | 0.15 | 95 | 1012.6 |
| 20260505015006 | 11 | 0 | 0.0 | 3.2 | 0.05 | 0.18 | 0.15 | 95 | 1012.7 |
| 20260505014506 | 11 | 0 | 0.0 | 3.2 | 0.05 | 0.18 | 0.15 | 95 | 1012.7 |
| 20260505014006 | 11 | 0 | 0.0 | 3.2 | 0.05 | 0.18 | 0.15 | 95 | 1012.7 |
| 20260505013505 | 11 | 0 | 0.0 | 1.6 | 0.05 | 0.18 | 0.15 | 95 | 1012.8 |
| 20260505013005 | 11 | 0 | 0.0 | 3.2 | 0.05 | 0.18 | 0.15 | 95 | 1012.9 |
| 20260505012507 | 11 | 0 | 0.0 | 3.2 | 0.05 | 0.18 | 0.15 | 95 | 1013.0 |
| 20260505012006 | 11 | 23 | 1.6 | 3.2 | 0.05 | 0.15 | 0.13 | 95 | 1012.9 |
| 20260505011005 | 11 | 18 | 1.6 | 4.8 | 0.05 | 0.15 | 0.13 | 94 | 1013.0 |
| 20260505010505 | 11 | 22 | 1.6 | 8.0 | 0.05 | 0.15 | 0.10 | 94 | 1013.1 |
| 20260505010006 | 11 | 29 | 1.6 | 8.0 | 0.05 | 0.15 | 0.10 | 94 | 1013.1 |
| 20260505005506 | 11 | 25 | 1.6 | 8.0 | 0.05 | 0.15 | 0.10 | 94 | 1013.1 |
| 20260505005006 | 11 | 11 | 1.6 | 8.0 | 0.03 | 0.13 | 0.08 | 94 | 1013.1 |
| 20260505003506 | 11 | 5 | 1.6 | 4.8 | 0.05 | 0.13 | 0.08 | 94 | 1013.2 |
| 20260505002506 | 11 | 30 | 1.6 | 3.2 | 0.05 | 0.13 | 0.08 | 94 | 1013.3 |
| 20260505002005 | 11 | 28 | 1.6 | 3.2 | 0.05 | 0.10 | 0.05 | 94 | 1013.2 |
| 20260505001505 | 11 | 28 | 1.6 | 3.2 | 0.05 | 0.10 | 0.05 | 94 | 1013.3 |
| 20260505001006 | 11 | 28 | 1.6 | 3.2 | 0.05 | 0.10 | 0.05 | 94 | 1013.3 |
| 20260505000506 | 11 | 16 | 1.6 | 3.2 | 0.05 | 0.10 | 0.05 | 94 | 1013.3 |
| 20260504235506 | 11 | 10 | 1.6 | 4.8 | 0.05 | 0.10 | 0.05 | 94 | 1013.4 |
| 20260504235005 | 11 | 23 | 1.6 | 4.8 | 0.05 | 0.08 | 0.05 | 94 | 1013.4 |
| 20260504234506 | 11 | 22 | 3.2 | 8.0 | 0.05 | 0.08 | 0.05 | 93 | 1013.3 |
| 20260504234005 | 11 | 27 | 3.2 | 12.9 | 0.05 | 0.08 | 0.05 | 93 | 1013.3 |
| 20260504233506 | 11 | 27 | 3.2 | 12.9 | 0.05 | 0.08 | 0.05 | 93 | 1013.4 |
| 20260504232506 | 12 | 27 | 3.2 | 9.7 | 0.03 | 0.05 | 0.03 | 93 | 1013.4 |
| 20260504232006 | 12 | 32 | 3.2 | 9.7 | 0.03 | 0.05 | 0.03 | 93 | 1013.4 |
| 20260504231506 | 12 | 31 | 3.2 | 9.7 | 0.05 | 0.05 | 0.03 | 93 | 1013.3 |
| 20260504231006 | 12 | 35 | 3.2 | 9.7 | 0.05 | 0.05 | 0.03 | 93 | 1013.3 |
| 20260504230506 | 12 | 42 | 3.2 | 9.7 | 0.05 | 0.05 | 0.03 | 93 | 1013.3 |
| 20260504230007 | 12 | 46 | 3.2 | 11.3 | 0.05 | 0.05 | 0.00 | 93 | 1013.3 |
| 20260504225006 | 12 | 31 | 3.2 | 9.7 | 0.05 | 0.05 | 0.05 | 92 | 1013.4 |
| 20260504224505 | 12 | 30 | 3.2 | 9.7 | 0.05 | 0.05 | 0.05 | 92 | 1013.5 |
| 20260504223505 | 12 | 29 | 3.2 | 9.7 | 0.05 | 0.05 | 0.05 | 92 | 1013.5 |
| 20260504223006 | 12 | 26 | 1.6 | 9.7 | 0.05 | 0.05 | 0.05 | 92 | 1013.6 |
| 20260504222506 | 12 | 33 | 1.6 | 4.8 | 0.05 | 0.05 | 0.05 | 91 | 1013.6 |
| 20260504221506 | 12 | 55 | 3.2 | 8.0 | 0.03 | 0.03 | 0.03 | 91 | 1013.5 |
| 20260504221006 | 12 | 54 | 3.2 | 8.0 | 0.00 | 0.00 | 0.00 | 91 | 1013.6 |
| 20260504220505 | 12 | 48 | 3.2 | 8.0 | 0.00 | 0.00 | 0.00 | 90 | 1013.5 |
| 20260504220005 | 13 | 39 | 3.2 | 8.0 | 0.00 | 0.00 | 0.00 | 90 | 1013.5 |
| 20260504215505 | 13 | 34 | 3.2 | 8.0 | 0.00 | 0.00 | 0.00 | 90 | 1013.4 |
| 20260504214506 | 13 | 25 | 3.2 | 9.7 | 0.00 | 0.00 | 0.00 | 89 | 1013.5 |
| 20260504214006 | 13 | 33 | 3.2 | 9.7 | 0.00 | 0.00 | 0.00 | 89 | 1013.5 |
| 20260504213506 | 13 | 38 | 3.2 | 8.0 | 0.00 | 0.00 | 0.00 | 89 | 1013.5 |
| 20260504213006 | 13 | 41 | 3.2 | 8.0 | 0.00 | 0.00 | 0.00 | 89 | 1013.6 |
| 20260504212506 | 13 | 45 | 3.2 | 8.0 | 0.00 | 0.00 | 0.00 | 89 | 1013.6 |
| 20260504212006 | 13 | 46 | 3.2 | 8.0 | 0.00 | 0.00 | 0.00 | 89 | 1013.5 |
| 20260504211506 | 13 | 31 | 3.2 | 8.0 | 0.00 | 0.00 | 0.00 | 89 | 1013.5 |
| 20260504210506 | 13 | 35 | 3.2 | 9.7 | 0.00 | 0.00 | 0.00 | 89 | 1013.6 |
| 20260504205505 | 13 | 27 | 1.6 | 8.0 | 0.00 | 0.00 | 0.00 | 89 | 1013.6 |
| 20260504205006 | 13 | 28 | 1.6 | 8.0 | 0.00 | 0.00 | 0.00 | 88 | 1013.6 |
| 20260504204506 | 13 | 42 | 1.6 | 4.8 | 0.00 | 0.00 | 0.00 | 88 | 1013.6 |
| 20260504204006 | 13 | 39 | 1.6 | 8.0 | 0.00 | 0.00 | 0.00 | 87 | 1013.6 |
| 20260504203506 | 13 | 33 | 1.6 | 8.0 | 0.00 | 0.00 | 0.00 | 87 | 1013.6 |
| 20260504203006 | 13 | 34 | 1.6 | 8.0 | 0.00 | 0.00 | 0.00 | 86 | 1013.5 |
| 20260504202505 | 13 | 45 | 1.6 | 4.8 | 0.00 | 0.00 | 0.00 | 86 | 1013.5 |
| 20260504201506 | 13 | 37 | 3.2 | 9.7 | 0.00 | 0.00 | 0.00 | 85 | 1013.4 |
| 20260504201006 | 14 | 46 | 6.4 | 16.1 | 0.00 | 0.00 | 0.00 | 85 | 1013.3 |
| 20260504200506 | 14 | 45 | 6.4 | 16.1 | 0.00 | 0.00 | 0.00 | 85 | 1013.3 |
| 20260504200006 | 14 | 48 | 6.4 | 11.3 | 0.00 | 0.00 | 0.00 | 84 | 1013.3 |
| 20260504195505 | 14 | 57 | 6.4 | 11.3 | 0.00 | 0.00 | 0.00 | 84 | 1013.3 |
| 20260504195007 | 14 | 65 | 3.2 | 9.7 | 0.00 | 0.00 | 0.00 | 84 | 1013.3 |
| 20260504194506 | 14 | 63 | 3.2 | 9.7 | 0.00 | 0.00 | 0.00 | 83 | 1013.3 |
| 20260504194005 | 14 | 59 | 6.4 | 12.9 | 0.00 | 0.00 | 0.00 | 83 | 1013.2 |
| 20260504193505 | 14 | 60 | 6.4 | 12.9 | 0.00 | 0.00 | 0.00 | 83 | 1013.2 |
| 20260504193006 | 15 | 56 | 6.4 | 12.9 | 0.00 | 0.00 | 0.00 | 82 | 1013.1 |
| 20260504192506 | 15 | 61 | 6.4 | 12.9 | 0.00 | 0.00 | 0.00 | 82 | 1013.0 |
| 20260504191006 | 15 | 70 | 8.0 | 20.9 | 0.00 | 0.00 | 0.00 | 80 | 1012.9 |
| 20260504190006 | 15 | 67 | 6.4 | 14.5 | 0.00 | 0.00 | 0.00 | 80 | 1012.8 |
| 20260504185006 | 15 | 73 | 3.2 | 11.3 | 0.00 | 0.00 | 0.00 | 80 | 1012.7 |
| 20260504184505 | 15 | 66 | 6.4 | 14.5 | 0.00 | 0.00 | 0.00 | 80 | 1012.7 |
| 20260504184005 | 15 | 56 | 6.4 | 16.1 | 0.00 | 0.00 | 0.00 | 79 | 1012.7 |
| 20260504183005 | 15 | 43 | 6.4 | 14.5 | 0.00 | 0.00 | 0.00 | 78 | 1012.7 |
| 20260504182506 | 15 | 35 | 6.4 | 16.1 | 0.00 | 0.00 | 0.00 | 78 | 1012.7 |
| 20260504182006 | 15 | 25 | 6.4 | 16.1 | 0.00 | 0.00 | 0.00 | 78 | 1012.6 |
| 20260504181505 | 16 | 26 | 8.0 | 16.1 | 0.00 | 0.00 | 0.00 | 78 | 1012.6 |
| 20260504180505 | 16 | 25 | 6.4 | 14.5 | 0.00 | 0.00 | 0.00 | 77 | 1012.5 |
| 20260504175006 | 16 | 34 | 8.0 | 14.5 | 0.00 | 0.00 | 0.00 | 77 | 1012.5 |
| 20260504174506 | 16 | 50 | 8.0 | 17.7 | 0.00 | 0.00 | 0.00 | 77 | 1012.5 |
| 20260504174005 | 16 | 49 | 9.7 | 17.7 | 0.00 | 0.00 | 0.00 | 77 | 1012.5 |
| 20260504173505 | 16 | 45 | 9.7 | 20.9 | 0.00 | 0.00 | 0.00 | 76 | 1012.5 |
| 20260504173005 | 16 | 52 | 8.0 | 20.9 | 0.00 | 0.00 | 0.00 | 76 | 1012.5 |
| 20260504172505 | 16 | 51 | 8.0 | 17.7 | 0.00 | 0.00 | 0.00 | 77 | 1012.5 |
| 20260504172006 | 16 | 53 | 9.7 | 17.7 | 0.00 | 0.00 | 0.00 | 77 | 1012.5 |
| 20260504171506 | 16 | 53 | 8.0 | 16.1 | 0.00 | 0.00 | 0.00 | 76 | 1012.5 |
| 20260504171005 | 16 | 49 | 6.4 | 12.9 | 0.00 | 0.00 | 0.00 | 76 | 1012.4 |
| 20260504170505 | 16 | 49 | 6.4 | 14.5 | 0.00 | 0.00 | 0.00 | 76 | 1012.4 |
| 20260504150506 | 17 | 75 | 6.4 | 14.5 | 0.00 | 0.00 | 0.00 | 68 | 1012.3 |
| 20260504141005 | 18 | 79 | 3.2 | 14.5 | 0.00 | 0.00 | 0.00 | 62 | 1012.3 |
| 20260504140505 | 18 | 74 | 3.2 | 9.7 | 0.00 | 0.00 | 0.00 | 60 | 1012.4 |
| 20260504130505 | 19 | 225 | 3.2 | 8.0 | 0.00 | 0.00 | 0.00 | 54 | 1012.4 |